User: anonymous   Login
Location: Roanoke
(37.2710°N, 79.9420°W)
Time: 21:38:18
(UTC-05:00)
Language:

Courier 1B Rocket - Orbit

View from above orbital plane
View from above orbital plane
View from above satellite
View from above satellite

Ground track
Ground track

The orbit data is extracted from the following two-line orbital elements,

1    59U 60013B   19325.88206014 +.00000093 +00000-0 +83922-5 0  9994
2    59 028.2476 209.5869 0189170 335.5469 023.6202 13.52972050918338
Epoch (UTC): 21 November 2019 21:10:09
Eccentricity: 0.0189170
inclination: 28.2476°
perigee height: 920 km
apogee height: 1202 km
right ascension of ascending node: 209.5869°
argument of perigee: 335.5469°
revolutions per day: 13.52972050
mean anomaly at epoch: 23.6202°
orbit number at epoch: 91833

The dashed part of the orbit path shows where the satellite is in the earth's shadow,  

DLR